This is the latest recevied weather packets stored in our database for station/object CE3PA-5. If no packets are shown the sender has not sent any weather packets the latest 10 day(s).
| Time | Temp. | Humidity | Pressure | Rain* | Wind** | Luminosity | Snow |
|---|---|---|---|---|---|---|---|
| 1778171162 | 15° C | 22% | 756.3 hPa | - | - | - | - |
| 1778170261 | 14.44° C | 22% | 756.5 hPa | - | - | - | - |
| 1778169361 | 13.89° C | 22% | 756.2 hPa | - | - | - | - |
| 1778168461 | 12.78° C | 22% | 756.1 hPa | - | - | - | - |
| 1778167562 | 11.67° C | 23% | 756.1 hPa | - | - | - | - |
| 1778165761 | 9.44° C | 23% | 756.3 hPa | - | - | - | - |
| 1778164861 | 8.89° C | 23% | 756.4 hPa | - | - | - | - |
| 1778163960 | 8.33° C | 23% | 756.3 hPa | - | - | - | - |
| 1778163060 | 7.22° C | 23% | 756.2 hPa | - | - | - | - |
| 1778162160 | 6.67° C | 23% | 755.8 hPa | - | - | - | - |
| 1778161260 | 5.56° C | 23% | 755.8 hPa | - | - | - | - |
| 1778160360 | 3.89° C | 24% | 755.7 hPa | - | - | - | - |
| 1778159460 | 1.67° C | 24% | 755.7 hPa | - | - | - | - |
| 1778158560 | 0.56° C | 24% | 755.7 hPa | - | - | - | - |
| 1778157660 | -2.22° C | 25% | 755.5 hPa | - | - | - | - |
| 1778156759 | -4.44° C | 25% | 755.6 hPa | - | - | - | - |
| 1778155860 | -5° C | 25% | 755.5 hPa | - | - | - | - |
| 1778154960 | -5° C | 26% | 755.3 hPa | - | - | - | - |
| 1778154064 | -5.56° C | 26% | 755.1 hPa | - | - | - | - |
| 1778153163 | -5.56° C | 26% | 754.9 hPa | - | - | - | - |
| 1778152262 | -5° C | 26% | 754.9 hPa | - | - | - | - |
| 1778151362 | -4.44° C | 26% | 754.9 hPa | - | - | - | - |
| 1778150462 | -4.44° C | 26% | 754.7 hPa | - | - | - | - |
| 1778149562 | -4.44° C | 27% | 754.5 hPa | - | - | - | - |
| 1778148662 | -3.89° C | 27% | 754.4 hPa | - | - | - | - |
* Rain since midnight (hover to see other rain measurements)
** Current wind speed in m/s (hover to see current wind gust speed)